This is the latest recevied weather packets stored in our database for station/object IU2EVW-3. If no packets are shown the sender has not sent any weather packets the latest 10 day(s).
| Time | Temp. | Humidity | Pressure | Rain* | Wind** | Luminosity | Snow |
|---|---|---|---|---|---|---|---|
| 1777928522 | 16.67° C | 40% | 1017 hPa | - | - | - | - |
| 1777927321 | 17.22° C | 36% | 1016.9 hPa | - | - | - | - |
| 1777926120 | 17.22° C | 36% | 1016.9 hPa | - | - | - | - |
| 1777924919 | 17.78° C | 36% | 1016.8 hPa | - | - | - | - |
| 1777923717 | 17.78° C | 37% | 1016.7 hPa | - | - | - | - |
| 1777922516 | 18.33° C | 37% | 1016.6 hPa | - | - | - | - |
| 1777921315 | 18.89° C | 38% | 1016.4 hPa | - | - | - | - |
| 1777920114 | 18.89° C | 39% | 1016.1 hPa | - | - | - | - |
| 1777918913 | 19.44° C | 39% | 1015.9 hPa | - | - | - | - |
| 1777917712 | 20° C | 39% | 1015.9 hPa | - | - | - | - |
| 1777916510 | 20° C | 38% | 1015.8 hPa | - | - | - | - |
| 1777915309 | 20.56° C | 38% | 1015.8 hPa | - | - | - | - |
| 1777914108 | 21.11° C | 36% | 1015.9 hPa | - | - | - | - |
| 1777912907 | 21.11° C | 35% | 1015.9 hPa | - | - | - | - |
| 1777911706 | 21.67° C | 34% | 1016 hPa | - | - | - | - |
| 1777910504 | 21.67° C | 34% | 1016 hPa | - | - | - | - |
| 1777909303 | 22.78° C | 34% | 1016 hPa | - | - | - | - |
| 1777908102 | 22.22° C | 34% | 1016.1 hPa | - | - | - | - |
| 1777906901 | 23.33° C | 32% | 1016.3 hPa | - | - | - | - |
| 1777905700 | 22.22° C | 33% | 1016.5 hPa | - | - | - | - |
| 1777904498 | 22.78° C | 32% | 1016.6 hPa | - | - | - | - |
| 1777903297 | 23.33° C | 32% | 1016.8 hPa | - | - | - | - |
| 1777902096 | 22.78° C | 32% | 1017 hPa | - | - | - | - |
| 1777900894 | 22.78° C | 33% | 1017.2 hPa | - | - | - | - |
| 1777899693 | 21.67° C | 34% | 1017.5 hPa | - | - | - | - |
* Rain since midnight (hover to see other rain measurements)
** Current wind speed in m/s (hover to see current wind gust speed)